カタログに戻る

FENGYUN 1C DEB

運用中SSO
NORAD 32143·DEBRIS·🇨🇳 China

打ち上げ May 10, 1999 から Taiyuan Satellite Launch Center

Loading…

次のパス (今後24時間)

TLE

最新Source: Space-Track

元期: Sep 14, 2026, 04:00 UTC

1 32143U 99025CSM 26257.16735713  .00000242  00000-0  13128-3 0  9999
2 32143  98.6280 231.0274 0104001  36.0818 324.7319 14.18175000998371

AllMySatでFENGYUN 1C DEBをリアルタイム追跡

Download on the App Store